Regional Weather Roundup
Issued by NWS

Home | Current Version | Previous Version | Text Only | Print | Product List | Glossary Off
Versions: 1 2 3 4 5 6 7 8 9 10 11 12 13 14 15 16 17 18 19 20 21 22 23 24 25 26 27 28 29 30 31 32 33 34 35 36 37 38 39 40 41 42 43 44 45 46 47 48 49 50

000
ASUS43 KIND 171209
RWRIN

WEATHER ROUNDUP FOR INDIANA
NATIONAL WEATHER SERVICE INDIANAPOLIS IN
800 AM EDT THU AUG 17 2017

NOTE: "FAIR" INDICATES FEW OR NO CLOUDS BELOW 12,000 FEET WITH NO
SIGNIFICANT WEATHER AND/OR OBSTRUCTIONS TO VISIBILITY.

* - STATION DOES NOT REPORT WEATHER SUCH AS PRECIPITATION OR FOG.

+ - STATION NOT QUALITY CONTROLLED BY THE NATIONAL WEATHER SERVICE.
    USE DATA WITH CAUTION...ESPECIALLY DEWPOINT AND RELATIVE
    HUMIDITY OBSERVATIONS.

INZ001>003-010>013-019-020-171300-
NORTHWEST INDIANA

CITY           SKY/WX    TMP DP  RH WIND       PRES   REMARKS
GARY /AIRPORT/ MOCLDY    73  70  88 S9        29.81S
KNOX *+        CLOUDY    72  68  88 S13       29.84R
LA PORTE +     CLOUDY    72  68  89 S6        29.84R
6HR MIN TEMP:  71; 6HR MAX TEMP:  76;

MICHIGAN CITY+ CLOUDY    72  68  88 S9G17     29.82S
MONTICELLO +   CLOUDY    73  71  92 S5        29.85S
6HR MIN TEMP:  73; 6HR MAX TEMP:  77;

RENSSELAER +   CLOUDY    72  64  78 S6        29.85F
VALPARAISO     CLOUDY    73  70  90 S10       29.84R
6HR MIN TEMP:  72; 6HR MAX TEMP:  77;


$$

LMZ046-743>745-171300-
SOUTHERN LAKE MICHIGAN

STATION/POSITION TIME  TEMP    WIND        PRES    WAVE
                       AIR SEA DIR/SP/G            HT
                 (UTC) (F)     (DEG/KT/KT) (MB)    (FT)
BURNS HARBOR     1140   73     190/ 12/ 17 1009.8S
MICHIGAN CITY    1140   72     160/ 13/ 14   N/A
5NW MICH CITY    1200   74 74  190/ 14/ 17   N/A     2

$$

INZ004-005-014>016-021>024-171300-
NORTH CENTRAL INDIANA

CITY           SKY/WX    TMP DP  RH WIND       PRES   REMARKS
ELKHART        CLOUDY    73  72  94 S7        29.84F
GOSHEN         CLOUDY    74  70  87 S8        29.85F
6HR MIN TEMP:  73; 6HR MAX TEMP:  76; 6HR PCP:  0.26;

LOGANSPORT +   CLOUDY    72  70  94 S6        29.87S
PERU/GRISSOM   MOSUNNY   74  74 100 S8        29.86S
6HR MIN TEMP:  73; 6HR MAX TEMP:  76; 6HR PCP:  0.03;

ROCHESTER +    CLOUDY    75  73  94 S10       29.86S
SOUTH BEND     PTSUNNY   74  72  93 S9        29.84S
6HR MIN TEMP:  73; 6HR MAX TEMP:  77;

WARSAW +       PTSUNNY   72  72 100 CALM      29.86F FOG

$$

INZ006>009-017-018-025>027-171300-
NORTHEAST INDIANA

CITY           SKY/WX    TMP DP  RH WIND       PRES   REMARKS
AUBURN +       MOSUNNY   72  70  94 CALM      29.88F FOG
FORT WAYNE     PTSUNNY   74  71  91 S10       29.88F
6HR MIN TEMP:  72; 6HR MAX TEMP:  77; 6HR PCP:  0.19;

HUNTINGTON +   MOSUNNY   73  72  95 S6        29.88S
6HR MIN TEMP:  72; 6HR MAX TEMP:  76; 6HR PCP:  0.07;

KENDALLVILLE + MOSUNNY   73  73 100 S7        29.88S FOG

$$

INZ028-029-035-036-043>045-051>053-171300-
WEST CENTRAL INDIANA

CITY           SKY/WX    TMP DP  RH WIND       PRES   REMARKS
GREENCASTLE +  CLOUDY    73  73 100 S7        29.90R FOG
LAFAYETTE      CLOUDY    73  71  93 S5        29.85S
6HR MIN TEMP:  71; 6HR MAX TEMP:  76;

TERRE HAUTE    CLOUDY    76  73  91 S13       29.87S
6HR MIN TEMP:  71; 6HR MAX TEMP:  76;


$$

INZ030>032-037>040-046>048-054>057-064-065-171300-
CENTRAL INDIANA

CITY           SKY/WX    TMP DP  RH WIND       PRES   REMARKS
CP ATTERBURY + CLOUDY    73  72  94 S6        29.93S
COLUMBUS       PTSUNNY   73  72  94 S9        29.93S
FRANKFORT +    CLOUDY    76  74  92 S5        29.89S FOG
6HR MIN TEMP:  74; 6HR MAX TEMP:  78;

GREENWOOD *+   CLOUDY    74  71  92 S5        29.93R
6HR MIN TEMP:  73; 6HR MAX TEMP:  77;

INDIANAPOLIS   PTSUNNY   75  73  93 S13       29.89S
6HR MIN TEMP:  74; 6HR MAX TEMP:  78;

-EAGLE CREEK   CLOUDY    76  72  87 S8        29.89S
6HR MIN TEMP:  75; 6HR MAX TEMP:  78;

KOKOMO +       CLOUDY    73  72  96 S8        29.89S
6HR MIN TEMP:  72; 6HR MAX TEMP:  76;

MARION +       CLOUDY    73  72  94 S8        29.90S FOG
MT COMFORT *+  SUNNY     72  72 100 S7        29.92S
SHELBYVILLE    MOSUNNY   76  71  85 S13       29.92R
6HR MIN TEMP:  75; 6HR MAX TEMP:  79;

ZIONSVILLE +   PTSUNNY   74  73  95 S12G17    29.90S
6HR MIN TEMP:  73; 6HR MAX TEMP:  77; 6HR PCP:  0.01;


$$

INZ033-034-041-042-049-050-058-059-171300-
EAST CENTRAL INDIANA

CITY           SKY/WX    TMP DP  RH WIND       PRES   REMARKS
MUNCIE         CLOUDY    76  71  85 S10G17    29.90F
6HR MIN TEMP:  75; 6HR MAX TEMP:  79; 6HR PCP:  0.10;

RICHMOND +     LGT RAIN  70  70 100 S7        29.96S

$$

INZ060-061-067>069-081>083-085>088-171300-
SOUTHWEST INDIANA

CITY           SKY/WX    TMP DP  RH WIND       PRES   REMARKS
EVANSVILLE     CLEAR     77  74  90 S12       29.93R
6HR MIN TEMP:  76; 6HR MAX TEMP:  78;

HUNTINGBURG +  CLEAR     76  74  93 MISG      29.94R
6HR MIN TEMP:  74; 6HR MAX TEMP:  76;

WASHINGTON +   PTCLDY    76  74  93 MISG      29.90S
6HR MIN TEMP:  73; 6HR MAX TEMP:  76;


$$

INZ062-063-066-070>080-084-089>092-171300-
SOUTH CENTRAL AND SOUTHEAST INDIANA

CITY           SKY/WX    TMP DP  RH WIND       PRES   REMARKS
BEDFORD +      MOSUNNY   73  72  94 S5        29.93S FOG
BLOOMINGTON    PTSUNNY   77  72  84 S12       29.92S
6HR MIN TEMP:  74; 6HR MAX TEMP:  77;

MADISON *+     MOSUNNY   73  72  94 S5        29.99R
NORTH VERNON + PTSUNNY   72  72 100 S6        29.96R
SEYMOUR +      MOSUNNY   77  75  94 S7        29.94R

$$




USA.gov is the U.S. government's official web portal to all federal, state and local government web resources and services.